カタログに戻る

FALCON 9 R/B

運用中HEO
NORAD 54028·ROCKET BODY·🇺🇸 United States

打ち上げ Oct 8, 2022 から Cape Canaveral Space Force Station

Loading…

次のパス (今後24時間)

TLE

最新Source: Space-Track

元期: Sep 14, 2026, 16:55 UTC

1 54028U 22128C   26257.70511958  .00011930  00000-0  85078-3 0  9997
2 54028  26.7073  94.7486 5717084 346.3081   3.0977  4.52180045 61508

AllMySatでFALCON 9 R/Bをリアルタイム追跡

Download on the App Store